Tracking 19149 objects as of 21-Apr-2018
HD Live streaming from Space Station
objects crossing your sky now

COSMOS 2252

Track COSMOS 2252 now!
10-day predictions
COSMOS 2252 is classified as:


NORAD ID: 22687
Int'l Code: 1993-038A
Perigee: 1,411.4 km
Apogee: 1,422.0 km
Inclination: 82.6 °
Period: 114.0 minutes
Semi major axis: 7787 km
RCS: 1.1207 m2 (large)
Launch date: June 24, 1993
Source: Commonwealth of Independent States (former USSR) (CIS)
Launch site: PLESETSK MISSILE AND SPACE COMPLEX (PKMTR)
aabbcc
Your satellite tracking list
Your tracking list is empty




NASA's NSSDC Master Catalog

Two Line Element Set (TLE):
1 22687U 93038A   18110.92053896 +.00000005 +00000-0 -31418-4 0  9998
2 22687 082.5819 331.3901 0006784 264.1506 225.4665 12.63249034144349
Source of the keplerian elements: AFSPC